FW9130 Weather Reports


time (UTC)temp
C
wind
direction
speed
KPH
gust
KPH
rain 1hr
cm
rain 24hr
cm
rain mn
cm
humidity
%
barometer
mb
20260510094956 9 161 0.0 0.0 0.00 0.00 0.00 99 1012.8
20260510094451 9 150 0.0 0.0 0.00 0.00 0.00 99 1012.7
20260510093947 9 145 0.0 0.0 0.00 0.00 0.00 99 1012.7
20260510093443 9 153 0.0 0.0 0.00 0.00 0.00 99 1012.7
20260510092939 9 139 0.0 0.0 0.00 0.00 0.00 99 1012.6
20260510092437 9 140 0.0 0.0 0.00 0.00 0.00 99 1012.6
20260510091936 8 140 0.0 0.0 0.00 0.00 0.00 99 1012.6
20260510091434 8 145 0.0 0.0 0.00 0.00 0.00 99 1012.6
20260510090930 8 131 0.0 0.0 0.00 0.00 0.00 99 1012.6
20260510090427 8 123 0.0 0.0 0.00 0.00 0.00 99 1012.4
20260510085922 8 120 0.0 0.0 0.00 0.00 0.00 99 1012.5
20260510085418 8 123 0.0 0.0 0.00 0.00 0.00 99 1012.3
20260510084913 8 124 0.0 0.0 0.00 0.00 0.00 99 1012.3
20260510084411 8 124 0.0 0.0 0.00 0.00 0.00 99 1012.3
20260510083907 8 124 0.0 0.0 0.00 0.00 0.00 99 1012.3
20260510083404 8 124 0.0 0.0 0.00 0.00 0.00 99 1012.3
20260510082859 8 123 0.0 0.0 0.00 0.00 0.00 99 1012.1
20260510082357 8 123 0.0 0.0 0.00 0.00 0.00 99 1012.3
20260510081855 8 123 0.0 0.0 0.00 0.00 0.00 99 1012.6
20260510081352 8 125 0.0 0.0 0.00 0.00 0.00 99 1012.4
20260510080849 8 129 0.0 0.0 0.00 0.00 0.00 99 1012.3
20260510080342 8 130 0.0 0.0 0.00 0.00 0.00 99 1012.3
20260510075840 8 124 0.0 0.0 0.00 0.00 0.00 99 1012.6
20260510075338 8 103 0.0 0.0 0.00 0.00 0.00 99 1012.5
20260510074834 8 101 0.0 0.0 0.00 0.00 0.00 99 1012.6
20260510074331 8 101 0.0 0.0 0.00 0.00 0.00 99 1012.5
20260510073828 9 101 0.0 0.0 0.00 0.00 0.00 99 1012.9
20260510073323 9 101 0.0 0.0 0.00 0.00 0.00 99 1012.9
20260510072819 9 101 0.0 0.0 0.00 0.00 0.00 99 1012.9
20260510072317 9 101 0.0 0.0 0.00 0.00 0.00 99 1012.8
20260510071813 9 101 0.0 0.0 0.00 0.00 0.00 99 1013.2
20260510071309 9 101 0.0 0.0 0.00 0.00 0.00 99 1013.2
20260510070808 9 105 0.0 0.0 0.00 0.00 0.00 99 1013.0
20260510070305 9 106 0.0 0.0 0.00 0.00 0.00 99 1012.9
20260510065804 8 107 0.0 0.0 0.00 0.00 0.00 99 1012.9
20260510065305 8 119 0.0 0.0 0.00 0.00 0.00 99 1013.1
20260510064758 8 103 0.0 0.0 0.00 0.00 0.00 99 1013.0
20260510064256 8 101 0.0 0.0 0.00 0.00 0.00 99 1012.9
20260510063751 8 105 0.0 0.0 0.00 0.00 0.00 99 1013.1
20260510063248 8 92 0.0 0.0 0.00 0.00 0.00 99 1013.2
20260510062745 8 87 0.0 0.0 0.00 0.00 0.00 99 1012.6
20260510062241 8 96 0.0 0.0 0.00 0.00 0.00 99 1012.6
20260510061736 8 93 0.0 0.0 0.00 0.00 0.00 99 1012.6
20260510061234 8 135 0.0 0.0 0.00 0.00 0.00 99 1012.5
20260510060729 8 118 0.0 0.0 0.00 0.00 0.00 99 1012.7
20260510060227 8 120 0.0 0.0 0.00 0.00 0.00 99 1012.5
20260510055723 8 123 0.0 0.0 0.00 0.00 0.00 99 1012.7
20260510055221 8 111 0.0 0.0 0.00 0.00 0.00 99 1012.7
20260510054716 8 123 0.0 0.0 0.00 0.00 0.00 99 1012.8
20260510054212 8 150 0.0 0.0 0.00 0.00 0.00 99 1012.7
20260510053712 8 68 0.0 0.0 0.00 0.00 0.00 99 1013.0
20260510053208 8 124 0.0 0.0 0.00 0.00 0.00 99 1012.9
20260510052704 8 125 0.0 0.0 0.00 0.00 0.00 99 1012.7
20260510052200 8 144 0.0 0.0 0.00 0.00 0.00 99 1012.7
20260510051656 8 319 0.0 0.0 0.00 0.00 0.00 99 1012.8
20260510051153 9 299 0.0 0.0 0.00 0.00 0.00 99 1012.7
20260510050650 9 174 0.0 0.0 0.00 0.00 0.00 99 1012.6
20260510050147 9 118 0.0 0.0 0.00 0.00 0.00 99 1012.8
20260510045644 9 140 0.0 0.0 0.00 0.00 0.00 99 1012.7
20260510045141 9 141 0.0 0.0 0.00 0.00 0.00 99 1012.6
20260510044636 9 133 0.0 0.0 0.00 0.00 0.00 99 1012.4
20260510044134 9 145 0.0 0.0 0.00 0.00 0.00 99 1012.4
20260510043630 9 166 0.0 0.0 0.00 0.00 0.00 99 1012.1
20260510043126 9 171 0.0 0.0 0.00 0.00 0.00 99 1012.4
20260510042624 9 158 0.0 0.0 0.00 0.00 0.00 99 1012.1
20260510042120 9 165 0.0 0.0 0.00 0.00 0.00 99 1012.4
20260510041617 9 152 0.0 0.0 0.00 0.00 0.00 99 1012.3
20260510041114 9 137 0.0 0.0 0.00 0.00 0.00 99 1012.3
20260510040612 9 145 0.0 0.0 0.00 0.00 0.00 99 1012.4
20260510040108 9 165 0.0 0.0 0.00 0.00 0.00 99 1012.1
20260510035604 9 211 0.0 0.0 0.00 0.00 0.00 99 1012.3
20260510035104 9 211 0.0 0.0 0.00 0.00 0.00 99 1012.1
20260510034602 8 211 0.0 0.0 0.00 0.00 0.00 99 1012.1
20260510034059 8 211 0.0 0.0 0.00 0.00 0.00 99 1012.4
20260510033555 8 212 0.0 0.0 0.00 0.00 0.00 99 1011.9
20260510033053 9 214 0.0 0.0 0.00 0.00 0.00 99 1012.1
20260510032549 8 159 0.0 1.6 0.00 0.00 0.00 99 1012.0
20260510032044 8 137 0.0 1.6 0.00 0.00 0.00 99 1012.0
20260510031539 8 154 0.0 0.0 0.00 0.00 0.00 99 1012.1
20260510031035 8 156 0.0 0.0 0.00 0.00 0.00 99 1012.0
20260510030531 8 141 0.0 0.0 0.00 0.00 0.00 99 1012.1
20260510030029 8 133 0.0 0.0 0.00 0.00 0.00 99 1011.9
20260510025525 8 152 0.0 0.0 0.00 0.00 0.00 99 1012.3
20260510025023 8 153 0.0 0.0 0.00 0.00 0.00 99 1012.0
20260510024520 8 123 0.0 0.0 0.00 0.00 0.00 99 1012.0
20260510024015 8 159 0.0 0.0 0.00 0.00 0.00 99 1012.1
20260510023511 9 173 0.0 0.0 0.00 0.00 0.00 99 1012.1
20260510023009 9 59 0.0 0.0 0.00 0.00 0.00 99 1012.3
20260510022503 9 122 0.0 0.0 0.00 0.00 0.00 99 1012.1
20260510022002 9 178 0.0 0.0 0.00 0.00 0.00 99 1012.1
20260510021459 9 162 0.0 0.0 0.00 0.00 0.00 99 1012.3
20260510020956 9 140 0.0 0.0 0.00 0.00 0.00 99 1012.4
20260510020451 9 139 0.0 0.0 0.00 0.00 0.00 99 1012.0
20260510015946 9 153 0.0 0.0 0.00 0.00 0.00 99 1011.8
20260510015442 10 155 0.0 1.6 0.00 0.00 0.00 99 1012.1
20260510014938 10 156 0.0 0.0 0.00 0.00 0.00 99 1012.1
20260510014436 10 161 0.0 0.0 0.00 0.00 0.00 99 1012.0
20260510013932 10 143 0.0 0.0 0.00 0.00 0.00 99 1012.0
20260510013427 10 138 0.0 0.0 0.00 0.00 0.00 99 1012.1
20260510012923 9 160 0.0 0.0 0.00 0.00 0.00 99 1012.0
20260510012418 9 142 0.0 0.0 0.00 0.00 0.00 99 1011.9
20260510011913 9 140 0.0 0.0 0.00 0.00 0.00 99 1011.9
20260510011408 9 140 0.0 0.0 0.00 0.00 0.00 99 1011.8
20260510010904 9 135 0.0 0.0 0.00 0.00 0.00 99 1011.9
20260510010402 9 134 0.0 0.0 0.00 0.00 0.00 99 1011.7
20260510005858 9 172 0.0 0.0 0.00 0.00 0.00 99 1011.7
20260510005354 9 171 0.0 0.0 0.00 0.00 0.00 99 1011.5
20260510004852 9 151 0.0 0.0 0.00 0.00 0.00 99 1011.4
20260510004349 9 141 0.0 0.0 0.00 0.00 0.00 99 1011.7
20260510003847 9 127 0.0 0.0 0.00 0.00 0.00 99 1011.7
20260510003344 9 130 0.0 0.0 0.00 0.00 0.00 99 1011.7
20260510002842 9 130 0.0 0.0 0.00 0.00 0.00 99 1011.5
20260510002340 10 127 0.0 0.0 0.00 0.00 0.00 99 1011.6
20260510001836 10 131 0.0 0.0 0.00 0.00 0.00 99 1011.4
20260510001335 10 131 0.0 0.0 0.00 0.00 0.00 99 1011.3
20260510000831 10 138 0.0 0.0 0.00 0.00 0.00 99 1011.3
20260510000328 10 129 0.0 0.0 0.00 0.00 0.00 99 1011.4
20260509235825 10 138 0.0 0.0 0.00 0.00 0.00 98 1011.2
20260509235321 10 137 0.0 0.0 0.00 0.00 0.00 98 1011.2
20260509234817 10 140 0.0 0.0 0.00 0.00 0.00 98 1011.1
20260509234314 10 137 0.0 0.0 0.00 0.00 0.00 97 1011.0
20260509233812 10 139 0.0 1.6 0.00 0.00 0.00 97 1011.0
20260509233309 10 133 1.6 1.6 0.00 0.00 0.00 97 1011.0
20260509232805 10 118 0.0 0.0 0.00 0.00 0.00 97 1011.1
20260509232306 10 130 0.0 0.0 0.00 0.00 0.00 97 1011.0
20260509231759 10 129 0.0 0.0 0.00 0.00 0.00 96 1011.2
20260509231256 11 130 0.0 1.6 0.00 0.00 0.00 96 1011.0
20260509230754 11 143 0.0 1.6 0.00 0.00 0.00 95 1010.9
20260509230250 11 142 1.6 1.6 0.00 0.00 0.00 94 1011.0
20260509225745 11 141 1.6 1.6 0.00 0.00 0.00 93 1011.2
20260509225242 11 71 1.6 1.6 0.00 0.00 0.00 90 1011.2
20260509224738 11 146 1.6 1.6 0.00 0.00 0.00 89 1010.9
20260509224235 11 160 3.2 3.2 0.00 0.00 0.00 90 1011.0
20260509223732 12 136 1.6 1.6 0.00 0.00 0.00 91 1011.1
20260509223229 11 137 1.6 1.6 0.00 0.00 0.00 89 1010.9
20260509222726 11 91 1.6 1.6 0.00 0.00 0.00 90 1010.8
20260509222221 11 83 1.6 1.6 0.00 0.00 0.00 91 1010.9
20260509221717 11 159 1.6 1.6 0.00 0.00 0.00 91 1011.1
20260509221213 11 146 1.6 1.6 0.00 0.00 0.00 91 1011.0
20260509220709 11 133 1.6 1.6 0.00 0.00 0.00 90 1010.8
20260509220206 11 132 1.6 1.6 0.00 0.00 0.00 91 1010.9
20260509215701 11 34 1.6 3.2 0.00 0.00 0.00 90 1011.2
20260509215158 11 103 1.6 1.6 0.00 0.00 0.00 91 1011.1
20260509214655 11 189 4.8 8.0 0.00 0.00 0.00 91 1011.2
20260509214152 11 79 1.6 1.6 0.00 0.00 0.00 90 1011.1
20260509213649 11 220 4.8 4.8 0.00 0.00 0.00 90 1011.3
20260509213145 11 48 1.6 3.2 0.00 0.00 0.00 92 1011.1
20260509212642 11 25 3.2 3.2 0.00 0.00 0.00 92 1011.2
20260509212139 11 203 1.6 1.6 0.00 0.00 0.00 93 1011.3
20260509211635 11 318 3.2 3.2 0.00 0.00 0.00 95 1011.1
20260509211132 11 318 4.8 8.0 0.00 0.00 0.00 95 1011.4
20260509210629 11 157 3.2 3.2 0.00 0.00 0.00 97 1011.3
20260509210126 11 126 3.2 4.8 0.00 0.00 0.00 98 1011.3
20260509205620 11 170 3.2 3.2 0.00 0.00 0.00 99 1011.4
20260509205115 10 6 3.2 3.2 0.00 0.00 0.00 99 1011.3
20260509204612 10 164 1.6 1.6 0.00 0.00 0.00 99 1011.1
20260509204108 10 132 0.0 1.6 0.00 0.00 0.00 99 1011.1
20260509203604 10 135 0.0 0.0 0.00 0.00 0.00 99 1011.4
20260509203103 10 113 0.0 0.0 0.00 0.00 0.00 99 1011.3
20260509202603 9 127 0.0 0.0 0.00 0.00 0.00 99 1011.4
20260509202058 9 146 1.6 1.6 0.00 0.00 0.00 99 1011.3
20260509201553 10 105 0.0 1.6 0.00 0.00 0.00 99 1011.3
20260509201052 10 141 0.0 0.0 0.00 0.00 0.00 99 1011.4
20260509200551 10 68 1.6 1.6 0.00 0.00 0.00 99 1011.5
20260509200047 10 119 0.0 0.0 0.00 0.00 0.00 99 1011.4
20260509195543 10 139 0.0 1.6 0.00 0.00 0.00 99 1011.6
20260509195037 10 110 0.0 0.0 0.00 0.00 0.00 99 1011.6
20260509194532 9 46 0.0 0.0 0.00 0.00 0.00 99 1011.7
20260509194030 9 106 0.0 0.0 0.00 0.00 0.00 99 1011.9
20260509193530 9 121 0.0 0.0 0.00 0.00 0.00 99 1012.0
20260509193027 9 104 1.6 3.2 0.00 0.00 0.00 99 1012.0
20260509192524 9 130 0.0 1.6 0.00 0.00 0.00 99 1012.1
20260509192019 9 38 3.2 3.2 0.00 0.00 0.00 99 1012.3
20260509191514 9 30 0.0 0.0 0.00 0.00 0.00 99 1012.4
20260509191010 9 310 0.0 1.6 0.00 0.00 0.00 99 1012.6
20260509190507 9 140 0.0 1.6 0.00 0.00 0.00 99 1012.4
20260509190006 9 121 0.0 0.0 0.00 0.00 0.00 99 1012.5
20260509185502 9 173 0.0 1.6 0.00 0.00 0.00 99 1012.8
20260509184958 8 120 0.0 0.0 0.00 0.00 0.00 99 1012.5
20260509184457 8 74 1.6 1.6 0.00 0.00 0.00 99 1012.6
20260509183952 8 139 1.6 3.2 0.00 0.00 0.00 99 1012.6
20260509183447 8 31 1.6 3.2 0.00 0.00 0.00 99 1012.6
20260509182943 8 110 0.0 1.6 0.00 0.00 0.00 99 1012.7
20260509182440 8 213 3.2 3.2 0.00 0.00 0.00 99 1012.7
20260509181937 9 331 4.8 4.8 0.00 0.00 0.00 99 1012.7
20260509181435 8 183 0.0 0.0 0.00 0.00 0.00 99 1012.6
20260509180932 9 192 1.6 3.2 0.00 0.00 0.00 99 1012.6
20260509180428 9 337 0.0 0.0 0.00 0.00 0.00 99 1012.7
20260509175925 9 134 0.0 0.0 0.00 0.00 0.00 99 1012.8
20260509175421 9 140 0.0 0.0 0.00 0.00 0.00 99 1012.6
20260509174917 9 144 0.0 0.0 0.00 0.00 0.00 99 1012.8
20260509174414 9 116 0.0 0.0 0.00 0.00 0.00 99 1012.7
20260509173909 9 152 0.0 0.0 0.00 0.00 0.00 99 1012.8
20260509173403 9 147 1.6 1.6 0.00 0.00 0.00 99 1012.8
20260509172900 9 128 0.0 1.6 0.00 0.00 0.00 99 1013.0
20260509172357 9 184 3.2 3.2 0.00 0.00 0.00 99 1012.9
20260509171853 9 146 1.6 3.2 0.00 0.00 0.00 99 1013.0
20260509171349 9 128 1.6 1.6 0.00 0.00 0.00 99 1012.7
20260509170846 9 171 1.6 3.2 0.00 0.00 0.00 98 1012.8
20260509170341 10 144 1.6 1.6 0.00 0.00 0.00 98 1012.6
20260509165836 10 158 1.6 1.6 0.00 0.00 0.00 98 1012.9
20260509165331 10 148 1.6 1.6 0.00 0.00 0.00 97 1013.1
20260509164827 10 163 4.8 4.8 0.00 0.00 0.00 97 1012.9
20260509164324 10 92 1.6 3.2 0.00 0.00 0.00 96 1012.9
20260509163820 10 158 3.2 3.2 0.00 0.00 0.00 96 1013.1
20260509163317 10 182 1.6 3.2 0.00 0.00 0.00 96 1013.2
20260509162816 10 167 3.2 3.2 0.00 0.00 0.00 96 1012.8
20260509162314 10 313 3.2 4.8 0.00 0.00 0.00 95 1012.8
20260509161811 10 169 3.2 3.2 0.00 0.00 0.00 96 1012.9
20260509161307 10 167 4.8 4.8 0.00 0.00 0.00 97 1012.8
20260509160802 10 147 3.2 3.2 0.00 0.00 0.00 97 1012.8
20260509160259 10 152 1.6 1.6 0.00 0.00 0.00 97 1013.0
20260509155754 9 205 1.6 3.2 0.00 0.00 0.00 97 1013.3
20260509155251 9 232 1.6 3.2 0.00 0.00 0.00 97 1013.3
20260509154747 10 163 1.6 1.6 0.00 0.00 0.00 97 1013.3
20260509154244 10 134 0.0 1.6 0.00 0.00 0.00 97 1013.4
20260509153741 9 121 1.6 1.6 0.00 0.00 0.00 97 1013.4
20260509153237 9 153 1.6 1.6 0.00 0.00 0.00 98 1013.0
20260509152734 8 133 0.0 1.6 0.00 0.00 0.00 98 1013.1
20260509152230 8 134 0.0 1.6 0.00 0.00 0.00 98 1012.9
20260509151727 8 140 1.6 1.6 0.00 0.00 0.00 98 1012.8
20260509151224 8 138 1.6 1.6 0.00 0.00 0.00 98 1012.9
20260509150722 9 152 1.6 3.2 0.00 0.00 0.00 98 1013.0
20260509150220 9 135 1.6 1.6 0.00 0.00 0.00 98 1013.1
20260509145717 9 133 0.0 0.0 0.00 0.00 0.00 98 1013.0
20260509145211 9 132 1.6 1.6 0.00 0.00 0.00 98 1013.3
20260509144708 9 129 0.0 0.0 0.00 0.00 0.00 98 1013.3
20260509144205 8 146 1.6 1.6 0.00 0.00 0.00 98 1013.2
20260509143702 8 139 1.6 1.6 0.00 0.00 0.00 98 1013.2
20260509143200 8 139 1.6 1.6 0.00 0.00 0.00 97 1013.3
20260509142655 8 136 1.6 1.6 0.00 0.00 0.00 97 1013.4
20260509142152 8 150 1.6 1.6 0.00 0.00 0.00 97 1013.3
20260509141648 8 134 0.0 1.6 0.00 0.00 0.00 97 1013.2
20260509141144 8 239 1.6 1.6 0.00 0.00 0.00 96 1013.1
20260509140641 8 129 0.0 0.0 0.00 0.00 0.00 96 1012.9
20260509140139 8 59 1.6 3.2 0.00 0.00 0.00 96 1013.2
20260509135636 8 141 0.0 1.6 0.00 0.00 0.00 95 1012.9
20260509135134 8 145 0.0 0.0 0.00 0.00 0.00 95 1012.7
20260509134630 8 153 0.0 0.0 0.00 0.00 0.00 94 1012.7
20260509134128 8 136 0.0 0.0 0.00 0.00 0.00 94 1012.7
20260509133625 8 129 0.0 0.0 0.00 0.00 0.00 92 1012.9
20260509133122 8 140 1.6 1.6 0.00 0.00 0.00 92 1013.0
20260509132620 8 142 1.6 1.6 0.00 0.00 0.00 91 1013.0
20260509132119 8 154 1.6 3.2 0.00 0.00 0.00 91 1012.8
20260509131614 8 152 1.6 3.2 0.00 0.00 0.00 90 1013.0
20260509131112 8 140 1.6 1.6 0.00 0.00 0.00 90 1012.8
20260509130607 8 112 3.2 3.2 0.00 0.00 0.00 89 1013.0
20260509130104 8 139 1.6 1.6 0.00 0.00 0.00 89 1012.8
20260509125600 8 146 1.6 1.6 0.00 0.00 0.00 88 1013.2
20260509125057 8 141 1.6 1.6 0.00 0.00 0.00 87 1013.2
20260509124553 8 239 1.6 1.6 0.00 0.00 0.00 88 1013.2
20260509124051 8 146 3.2 3.2 0.00 0.00 0.00 89 1013.2
20260509123549 8 144 1.6 1.6 0.00 0.00 0.00 89 1013.3
20260509123045 8 142 1.6 1.6 0.00 0.00 0.00 89 1013.4
20260509122541 8 132 1.6 1.6 0.00 0.00 0.00 89 1013.3
20260509122038 8 144 1.6 3.2 0.00 0.00 0.00 89 1013.2
20260509121535 8 130 0.0 1.6 0.00 0.00 0.00 88 1013.2
20260509121033 8 119 0.0 0.0 0.00 0.00 0.00 87 1013.2
20260509120531 8 138 1.6 1.6 0.00 0.00 0.00 88 1013.6
20260509120029 8 129 1.6 1.6 0.00 0.00 0.00 88 1013.3
20260509115525 8 133 0.0 1.6 0.00 0.00 0.00 89 1013.2
20260509115023 8 140 1.6 1.6 0.00 0.00 0.00 90 1012.9
20260509114521 8 128 0.0 0.0 0.00 0.00 0.00 91 1012.9
20260509114020 8 123 1.6 1.6 0.00 0.00 0.00 93 1013.1
20260509113518 8 106 0.0 0.0 0.00 0.00 0.00 92 1013.0
20260509113015 8 105 1.6 1.6 0.00 0.00 0.00 92 1013.0
20260509112511 8 106 0.0 0.0 0.00 0.00 0.00 93 1012.9
20260509112008 8 105 0.0 0.0 0.00 0.00 0.00 94 1013.0
20260509111506 8 129 0.0 1.6 0.00 0.00 0.00 94 1012.9
20260509111003 7 139 1.6 1.6 0.00 0.00 0.00 93 1013.0
20260509110459 7 103 1.6 1.6 0.00 0.00 0.00 93 1012.9
20260509105956 7 101 0.0 0.0 0.00 0.00 0.00 93 1012.9
20260509105455 7 112 0.0 0.0 0.00 0.00 0.00 93 1012.8
20260509104952 7 113 0.0 0.0 0.00 0.00 0.00 93 1013.0
20260509104448 7 131 1.6 1.6 0.00 0.00 0.00 93 1012.8
20260509103946 7 110 0.0 0.0 0.00 0.00 0.00 94 1012.8
20260509103443 7 111 0.0 0.0 0.00 0.00 0.00 94 1012.9
20260509102941 7 111 0.0 0.0 0.00 0.00 0.00 94 1012.8
20260509102438 7 111 0.0 1.6 0.00 0.00 0.00 93 1012.8
20260509101934 7 110 0.0 0.0 0.00 0.00 0.00 92 1013.2
20260509101431 7 110 0.0 0.0 0.00 0.00 0.00 92 1013.1
20260509100928 7 110 0.0 0.0 0.00 0.00 0.00 91 1012.9
20260509100425 7 112 0.0 0.0 0.00 0.00 0.00 90 1013.1
20260509095922 7 112 0.0 0.0 0.00 0.00 0.00 90 1012.9
20260509095419 7 112 0.0 0.0 0.00 0.00 0.00 89 1013.3